| time (UTC) | temp C | wind direction | speed KPH | gust KPH | rain 1hr cm | rain 24hr cm | rain mn cm | humidity % | barometer mb |
| 20260507065519 | 5 | 0.0 | 0.0 | 0.00 | 1.35 | 0.00 | 90 | 1012.2 | |
| 20260507064519 | 5 | 0.0 | 0.0 | 0.00 | 1.42 | 0.00 | 90 | 1012.0 | |
| 20260507063520 | 5 | 0.0 | 0.0 | 0.00 | 1.50 | 0.00 | 90 | 1011.9 | |
| 20260507062520 | 5 | 0.0 | 0.0 | 0.00 | 1.57 | 0.00 | 90 | 1012.0 | |
| 20260507061519 | 5 | 0.0 | 0.0 | 0.00 | 1.63 | 0.00 | 90 | 1011.8 | |
| 20260507060520 | 6 | 0.0 | 0.0 | 0.00 | 1.75 | 0.00 | 90 | 1012.1 | |
| 20260507055539 | 6 | 0.0 | 0.0 | 0.00 | 1.83 | 0.00 | 91 | 1012.2 | |
| 20260507054520 | 6 | 0.0 | 0.0 | 0.00 | 1.85 | 0.00 | 91 | 1012.4 | |
| 20260507053520 | 6 | 0.0 | 0.0 | 0.00 | 1.88 | 0.00 | 91 | 1012.4 | |
| 20260507052519 | 6 | 0.0 | 0.0 | 0.00 | 1.91 | 0.00 | 91 | 1012.5 | |
| 20260507051519 | 6 | 0.0 | 0.0 | 0.00 | 1.96 | 0.00 | 91 | 1012.4 | |
| 20260507050519 | 6 | 0.0 | 0.0 | 0.00 | 2.01 | 0.00 | 91 | 1012.6 | |
| 20260507045519 | 6 | 0.0 | 0.0 | 0.00 | 2.06 | 0.00 | 91 | 1012.5 | |
| 20260507044520 | 6 | 0.0 | 0.0 | 0.00 | 2.08 | 0.00 | 91 | 1012.5 | |
| 20260507043540 | 6 | 0.0 | 0.0 | 0.00 | 2.11 | 0.00 | 91 | 1012.5 | |
| 20260507042540 | 6 | 0.0 | 0.0 | 0.00 | 2.13 | 0.00 | 91 | 1012.5 | |
| 20260507041540 | 6 | 0.0 | 0.0 | 0.00 | 2.13 | 0.00 | 91 | 1012.4 | |
| 20260507040520 | 6 | 0.0 | 0.0 | 0.00 | 2.16 | 0.00 | 91 | 1012.2 | |
| 20260507035518 | 6 | 0.0 | 0.0 | 0.00 | 2.18 | 2.18 | 91 | 1012.2 | |
| 20260507034518 | 6 | 0.0 | 0.0 | 0.00 | 2.21 | 2.18 | 91 | 1012.2 | |
| 20260507033518 | 6 | 0.0 | 0.0 | 0.00 | 2.24 | 2.18 | 91 | 1012.1 | |
| 20260507032519 | 6 | 0.0 | 0.0 | 0.00 | 2.26 | 2.18 | 91 | 1012.1 | |
| 20260507031518 | 6 | 0.0 | 0.0 | 0.00 | 2.26 | 2.18 | 91 | 1012.1 | |
| 20260507030519 | 6 | 0.0 | 0.0 | 0.00 | 2.26 | 2.18 | 90 | 1012.0 | |
| 20260507025518 | 6 | 0.0 | 0.0 | 0.00 | 2.26 | 2.18 | 90 | 1011.8 | |
| 20260507024539 | 6 | 0.0 | 0.0 | 0.00 | 2.29 | 2.18 | 90 | 1012.0 | |
| 20260507023518 | 6 | 0.0 | 0.0 | 0.00 | 2.29 | 2.18 | 90 | 1012.0 | |
| 20260507022518 | 6 | 0.0 | 0.0 | 0.00 | 2.29 | 2.18 | 89 | 1011.8 | |
| 20260507021518 | 7 | 0.0 | 0.0 | 0.00 | 2.31 | 2.18 | 89 | 1011.9 | |
| 20260507020539 | 7 | 0.0 | 0.0 | 0.00 | 2.31 | 2.18 | 90 | 1012.1 | |
| 20260507015518 | 7 | 0.0 | 0.0 | 0.00 | 2.34 | 2.18 | 89 | 1012.1 | |
| 20260507014518 | 7 | 0.0 | 0.0 | 0.00 | 2.36 | 2.18 | 89 | 1012.0 | |
| 20260507013518 | 7 | 0.0 | 0.0 | 0.03 | 2.41 | 2.18 | 89 | 1011.8 | |
| 20260507012518 | 7 | 0.0 | 0.0 | 0.03 | 2.44 | 2.18 | 88 | 1012.0 | |
| 20260507011518 | 7 | 0.0 | 1.6 | 0.03 | 2.44 | 2.18 | 88 | 1012.1 | |
| 20260507010518 | 7 | 0.0 | 1.6 | 0.05 | 2.44 | 2.18 | 88 | 1012.0 | |
| 20260507005518 | 7 | 68 | 1.6 | 8.0 | 0.13 | 2.46 | 2.18 | 88 | 1011.8 |
| 20260507004518 | 8 | 0.0 | 3.2 | 0.13 | 2.46 | 2.18 | 87 | 1011.6 | |
| 20260507003518 | 8 | 0.0 | 3.2 | 0.15 | 2.46 | 2.16 | 86 | 1011.1 | |
| 20260507002538 | 8 | 0.0 | 0.0 | 0.20 | 2.46 | 2.16 | 86 | 1010.9 | |
| 20260507001518 | 8 | 0.0 | 4.8 | 0.25 | 2.46 | 2.16 | 85 | 1011.0 | |
| 20260507000519 | 9 | 0.0 | 3.2 | 0.25 | 2.46 | 2.13 | 86 | 1011.0 | |
| 20260506235559 | 10 | 225 | 1.6 | 11.3 | 0.18 | 2.39 | 2.06 | 85 | 1010.7 |
| 20260506234518 | 10 | 0.0 | 0.0 | 0.18 | 2.41 | 2.06 | 84 | 1010.5 | |
| 20260506233538 | 10 | 0.0 | 0.0 | 0.13 | 2.36 | 2.01 | 84 | 1010.4 | |
| 20260506232518 | 10 | 0.0 | 0.0 | 0.08 | 2.34 | 1.96 | 84 | 1010.1 | |
| 20260506231518 | 10 | 0.0 | 0.0 | 0.03 | 2.34 | 1.91 | 84 | 1010.0 | |
| 20260506230518 | 10 | 0.0 | 0.0 | 0.00 | 2.34 | 1.88 | 84 | 1009.8 | |
| 20260506225518 | 10 | 0.0 | 0.0 | 0.00 | 2.36 | 1.88 | 83 | 1009.7 | |
| 20260506224519 | 10 | 0.0 | 0.0 | 0.00 | 2.39 | 1.88 | 83 | 1009.6 | |
| 20260506223518 | 10 | 0.0 | 0.0 | 0.00 | 2.41 | 1.88 | 83 | 1009.6 | |
| 20260506222518 | 10 | 0.0 | 0.0 | 0.00 | 2.46 | 1.88 | 83 | 1009.5 | |
| 20260506221519 | 10 | 0.0 | 0.0 | 0.00 | 2.46 | 1.88 | 83 | 1009.5 | |
| 20260506220518 | 10 | 0.0 | 0.0 | 0.00 | 2.46 | 1.88 | 84 | 1009.5 | |
| 20260506215519 | 10 | 0.0 | 0.0 | 0.00 | 2.46 | 1.88 | 84 | 1009.4 | |
| 20260506214519 | 10 | 0.0 | 0.0 | 0.00 | 2.46 | 1.88 | 84 | 1009.2 | |
| 20260506213518 | 11 | 0.0 | 0.0 | 0.00 | 2.46 | 1.88 | 84 | 1009.5 | |
| 20260506213450 | 11 | 0.0 | 0.0 | 0.00 | 2.46 | 1.88 | 84 | 1009.4 | |
| 20260506172108 | 8 | 0.0 | 3.2 | 0.00 | 2.46 | 1.88 | 92 | 1009.1 | |
| 20260506171541 | 8 | 0.0 | 3.2 | 0.00 | 2.46 | 1.88 | 93 | 1008.7 | |
| 20260506170522 | 8 | 0.0 | 4.8 | 0.00 | 2.46 | 1.88 | 93 | 1008.8 | |
| 20260506165519 | 8 | 0.0 | 3.2 | 0.00 | 2.46 | 1.88 | 93 | 1008.8 | |
| 20260506164522 | 8 | 45 | 1.6 | 6.4 | 0.00 | 2.46 | 1.88 | 93 | 1008.8 |
| 20260506163522 | 8 | 45 | 1.6 | 4.8 | 0.00 | 2.46 | 1.88 | 93 | 1008.9 |
| 20260506162521 | 8 | 0.0 | 4.8 | 0.00 | 2.46 | 1.88 | 94 | 1008.7 | |
| 20260506161522 | 8 | 0.0 | 8.0 | 0.00 | 2.46 | 1.88 | 94 | 1008.8 | |
| 20260506160522 | 8 | 0.0 | 1.6 | 0.00 | 2.46 | 1.88 | 94 | 1008.6 | |
| 20260506155520 | 8 | 0.0 | 3.2 | 0.00 | 2.46 | 1.88 | 94 | 1008.9 | |
| 20260506154521 | 8 | 0.0 | 3.2 | 0.00 | 2.46 | 1.88 | 94 | 1008.9 | |
| 20260506153520 | 8 | 0.0 | 6.4 | 0.00 | 2.46 | 1.88 | 94 | 1008.8 | |
| 20260506152520 | 8 | 45 | 1.6 | 8.0 | 0.00 | 2.46 | 1.88 | 94 | 1008.6 |
| 20260506151521 | 8 | 0.0 | 3.2 | 0.00 | 2.46 | 1.88 | 94 | 1008.6 | |
| 20260506150520 | 8 | 0.0 | 3.2 | 0.00 | 2.46 | 1.88 | 94 | 1008.7 | |
| 20260506145522 | 8 | 0.0 | 0.0 | 0.00 | 2.46 | 1.88 | 94 | 1008.6 | |
| 20260506144521 | 7 | 0.0 | 1.6 | 0.03 | 2.46 | 1.88 | 94 | 1008.4 | |
| 20260506143614 | 7 | 0.0 | 1.6 | 0.03 | 2.46 | 1.88 | 94 | 1008.3 | |
| 20260506142542 | 7 | 0.0 | 3.2 | 0.03 | 2.46 | 1.88 | 94 | 1008.3 | |
| 20260506141521 | 7 | 0.0 | 1.6 | 0.05 | 2.46 | 1.88 | 94 | 1008.2 | |
| 20260506140521 | 7 | 0.0 | 1.6 | 0.05 | 2.46 | 1.88 | 94 | 1008.1 | |
| 20260506135521 | 7 | 0.0 | 3.2 | 0.05 | 2.46 | 1.88 | 94 | 1008.3 | |
| 20260506134521 | 7 | 0.0 | 1.6 | 0.03 | 2.44 | 1.85 | 94 | 1008.3 | |
| 20260506133521 | 7 | 0.0 | 4.8 | 0.05 | 2.44 | 1.85 | 94 | 1008.3 | |
| 20260506132520 | 7 | 23 | 1.6 | 8.0 | 0.05 | 2.44 | 1.85 | 94 | 1008.1 |
| 20260506131521 | 7 | 0.0 | 3.2 | 0.03 | 2.41 | 1.83 | 94 | 1008.0 | |
| 20260506130540 | 7 | 0.0 | 0.0 | 0.05 | 2.41 | 1.83 | 94 | 1008.0 | |
| 20260506125540 | 7 | 0.0 | 0.0 | 0.08 | 2.41 | 1.83 | 94 | 1008.0 | |
| 20260506124520 | 7 | 0.0 | 0.0 | 0.10 | 2.41 | 1.83 | 94 | 1008.0 | |
| 20260506123520 | 7 | 0.0 | 0.0 | 0.08 | 2.39 | 1.80 | 94 | 1008.2 | |
| 20260506122520 | 7 | 0.0 | 0.0 | 0.08 | 2.39 | 1.80 | 94 | 1008.1 | |
| 20260506121520 | 7 | 0.0 | 3.2 | 0.10 | 2.39 | 1.80 | 94 | 1008.1 | |
| 20260506120520 | 7 | 0.0 | 1.6 | 0.08 | 2.36 | 1.78 | 94 | 1008.2 | |
| 20260506115520 | 7 | 0.0 | 1.6 | 0.08 | 2.34 | 1.75 | 94 | 1008.3 | |
| 20260506114520 | 7 | 0.0 | 3.2 | 0.08 | 2.31 | 1.73 | 94 | 1008.2 | |
| 20260506113539 | 7 | 0.0 | 3.2 | 0.10 | 2.31 | 1.73 | 94 | 1008.1 | |
| 20260506112519 | 7 | 0.0 | 6.4 | 0.13 | 2.31 | 1.73 | 93 | 1007.9 | |
| 20260506111519 | 7 | 0.0 | 3.2 | 0.13 | 2.29 | 1.70 | 93 | 1007.8 | |
| 20260506110600 | 7 | 0.0 | 4.8 | 0.15 | 2.29 | 1.70 | 94 | 1008.0 | |
| 20260506105519 | 7 | 90 | 1.6 | 6.4 | 0.15 | 2.26 | 1.68 | 93 | 1007.9 |
| 20260506104541 | 7 | 0.0 | 1.6 | 0.18 | 2.24 | 1.65 | 93 | 1008.2 | |
| 20260506103519 | 7 | 90 | 1.6 | 6.4 | 0.18 | 2.21 | 1.63 | 93 | 1008.2 |
| 20260506102540 | 7 | 0.0 | 3.2 | 0.18 | 2.18 | 1.60 | 93 | 1008.3 | |
| 20260506101519 | 7 | 0.0 | 0.0 | 0.18 | 2.16 | 1.57 | 93 | 1008.3 | |
| 20260506100520 | 7 | 0.0 | 0.0 | 0.18 | 2.13 | 1.55 | 93 | 1008.5 | |
| 20260506095520 | 7 | 0.0 | 4.8 | 0.15 | 2.11 | 1.52 | 93 | 1008.2 | |
| 20260506094519 | 7 | 0.0 | 0.0 | 0.13 | 2.06 | 1.47 | 93 | 1008.4 | |
| 20260506094126 | 7 | 0.0 | 1.6 | 0.10 | 2.03 | 1.45 | 93 | 1008.3 | |
| 20260506093846 | 8 | 0.0 | 0.0 | 0.13 | 2.03 | 1.45 | 93 | 1008.3 | |
| 20260506092519 | 8 | 0.0 | 1.6 | 0.13 | 2.01 | 1.42 | 93 | 1008.1 | |
| 20260506091519 | 8 | 0.0 | 1.6 | 0.13 | 1.98 | 1.40 | 93 | 1008.0 | |
| 20260506090520 | 8 | 0.0 | 4.8 | 0.15 | 1.96 | 1.37 | 93 | 1007.7 | |
| 20260506085520 | 8 | 68 | 1.6 | 8.0 | 0.18 | 1.96 | 1.37 | 93 | 1008.0 |
| 20260506084519 | 8 | 0.0 | 8.0 | 0.23 | 1.93 | 1.35 | 93 | 1008.0 | |
| 20260506083539 | 8 | 0.0 | 3.2 | 0.25 | 1.91 | 1.32 | 93 | 1008.6 | |
| 20260506082520 | 8 | 0.0 | 6.4 | 0.30 | 1.88 | 1.30 | 93 | 1008.4 | |
| 20260506081519 | 8 | 0.0 | 4.8 | 0.33 | 1.85 | 1.27 | 93 | 1008.0 | |
| 20260506080519 | 8 | 0.0 | 3.2 | 0.33 | 1.80 | 1.22 | 93 | 1008.3 | |
| 20260506073520 | 8 | 0.0 | 3.2 | 0.38 | 1.65 | 1.07 | 92 | 1008.4 | |
| 20260506072519 | 8 | 0.0 | 3.2 | 0.38 | 1.57 | 0.99 | 92 | 1008.3 | |
| 20260506071540 | 8 | 0.0 | 3.2 | 0.38 | 1.52 | 0.94 | 92 | 1008.0 | |
| 20260506070520 | 8 | 90 | 1.6 | 11.3 | 0.46 | 1.50 | 0.89 | 92 | 1008.1 |